Simultaneous Nadir Overpasses (SNOs) Predictions

Prediction of SNOs between GOES-17 and TERRA Satellite Orbit:

Table of predicted SNOs for the next 14.0 days since TLE Epoch: 5/31/2019
Index Date Time (GOES-17) GOES-17 Lat,Lon TERRA Lat,Lon Distance(km) Time Diff (sec)
1 06/01/2019 19:34:05 0.01,-137.20 -0.31,-135.63 178.16 80
2 06/02/2019 07:55:29 -0.01,-137.19 -0.80,-140.82 413.69 80
3 06/04/2019 07:43:17 -0.01,-137.18 -0.18,-137.86 78.06 80
4 06/06/2019 07:28:25 -0.01,-137.16 0.45,-134.90 256.49 80
5 06/06/2019 19:49:41 0.00,-137.17 0.60,-140.07 329.12 80
6 06/08/2019 19:40:09 -0.01,-137.15 -0.03,-137.11 4.56 80
7 06/10/2019 19:27:57 -0.02,-137.12 -0.66,-134.15 337.97 80
8 06/11/2019 07:49:21 0.02,-137.11 -0.45,-139.34 254.01 80
9 06/13/2019 07:34:29 0.02,-137.08 0.19,-136.39 79.18 80




NCC Satellite Simultaneous Nadir Overpasses (SNOs) Prediction Service
